Regional Weather Roundup
Issued by NWS

Home | Current Version | Previous Version | Graphics & Text | Print | Product List | Glossary On
Versions: 1 2 3 4 5 6 7 8 9 10 11 12 13 14 15 16 17 18 19 20 21 22 23 24 25 26 27 28 29 30 31 32 33 34 35 36 37 38 39 40 41 42 43 44 45 46 47 48 49 50
000
ASUS43 KBIS 250010
RWRND

NORTH DAKOTA REGIONAL WEATHER ROUNDUP
NATIONAL WEATHER SERVICE BISMARCK ND
600 PM CST FRI FEB 24 2017

NOTE: "FAIR" INDICATES FEW OR NO CLOUDS BELOW 12,000 FEET WITH NO
SIGNIFICANT WEATHER AND/OR OBSTRUCTIONS TO VISIBILITY.


NDZ001>003-009>011-017-250100-
NORTHWEST NORTH DAKOTA

CITY           SKY/WX    TMP DP  RH WIND       PRES   REMARKS
WILLISTON      CLOUDY    27  15  61 SW8       30.09S WCI  19
6HR MIN TEMP:  25; 6HR MAX TEMP:  28;

MINOT          MOCLDY    27  17  66 CALM      30.08F
MINOT AFB      MOCLDY    23  16  75 SE3       30.08S
$$

NDZ018>021-031>035-040>046-250100-
SOUTHWEST NORTH DAKOTA

CITY           SKY/WX    TMP DP  RH WIND       PRES   REMARKS
BISMARCK       MOCLDY    28  14  55 NW9       30.12S WCI  19
6HR MIN TEMP:  28; 6HR MAX TEMP:  32;

DICKINSON      CLOUDY    23  14  68 SW6       30.05S WCI  16
GARRISON         N/A     24  14  65 W6        30.09S WCI  17
6HR MIN TEMP:  24; 6HR MAX TEMP:  29;

HETTINGER ARPT CLOUDY    27  13  55 CALM      30.07S
$$

NDZ004>008-012>016-024-026-027-054-250100-
NORTHEAST NORTH DAKOTA

CITY           SKY/WX    TMP DP  RH WIND       PRES   REMARKS
GRAND FORKS    PTCLDY    19   8  62 N16       30.13R WCI   4
GRND FRKS AFB  CLEAR     18  11  74 NE10      30.12R WCI   7
DEVILS LAKE    FAIR      20  13  74 N8        30.11S WCI  10
$$

NDZ022-023-025-028>030-036>039-047>053-250100-
SOUTHEAST NORTH DAKOTA

CITY           SKY/WX    TMP DP  RH WIND       PRES   REMARKS
FARGO          MOCLDY    22  14  71 N20       30.08S WCI   7
6HR MIN TEMP:  22; 6HR MAX TEMP:  26;

JAMESTOWN      FAIR      22  16  78 N14       30.08S WCI   9
$$




USA.gov is the U.S. government's official web portal to all federal, state and local government web resources and services.